Temperature
8 7 7 7 7 6 6 6 6 6 6 6 6 7 7 7 8 9 10 10 10 10 10 10 10 11 11 11 11 11 11 11 11 11 11 12 12 12 12 12 12 13 13
7 7 6 6 6 6 5 5 5 5 5 4 4 4 5 5 6 7 8 8 9 9 9 10 10 10 10 10 10 10 11 11 11 10 10 11 11 12 12 12 12 12 12
6 6 5 5 5 5 4 4 4 4 4 4 3 3 4 4 4 5 6 7 8 8 9 9 9 10 10 10 10 10 10 10 10 10 10 10 10 11 11 12 12 12 12
5 5 4 4 4 3 3 3 3 3 3 3 3 3 3 3 3 3 4 5 6 7 8 8 9 9 9 9 9 9 10 10 9 9 9 9 10 10 10 10 11 11 11
4 4 3 3 3 3 2 2 2 2 2 2 2 2 2 2 2 2 3 4 5 6 6 7 8 8 9 9 9 9 9 9 9 9 9 9 9 9 10 9 9 10 10
3 3 2 2 2 2 1 1 1 1 1 1 1 1 1 1 1 2 2 2 3 4 5 6 7 7 8 8 8 8 8 9 9 8 8 8 8 9 9 9 9 9 9
2 2 1 1 1 1 0 -0 -0 -0 -0 -0 -0 -0 -0 0 0 0 0 1 1 2 3 4 5 6 6 7 7 8 8 8 8 8 8 8 8 8 8 9 9 9 9
2 1 0 0 -0 -0 -1 -1 -1 -1 -1 -1 -1 -1 -1 -1 -0 -0 -1 -1 -1 0 1 2 3 4 5 6 6 6 7 7 7 7 7 7 7 7 7 8 8 8 8
1 -0 -1 -1 -1 -2 -2 -2 -2 -2 -2 -2 -2 -2 -1 -1 -1 -1 -1 -2 -2 -1 -1 0 1 2 3 4 5 5 6 6 6 6 6 6 7 7 7 7 7 7 7
-1 -1 -2 -2 -3 -3 -3 -3 -3 -3 -3 -3 -3 -3 -3 -2 -3 -3 -3 -3 -3 -2 -2 -1 -0 1 2 2 3 3 4 5 5 5 6 6 6 6 6 6 7 7 7
-2 -2 -2 -3 -3 -4 -4 -5 -4 -5 -5 -5 -5 -4 -4 -4 -4 -4 -4 -4 -4 -3 -2 -2 -1 -0 0 1 2 2 3 3 3 4 4 5 5 5 5 6 6 6 6
-2 -3 -3 -4 -4 -5 -5 -6 -6 -6 -6 -6 -6 -6 -6 -5 -5 -5 -5 -5 -4 -4 -3 -2 -2 -1 -0 -0 0 1 1 2 2 2 3 3 3 4 4 4 5 5 5
-3 -4 -4 -5 -6 -6 -6 -7 -7 -7 -7 -7 -7 -7 -7 -7 -6 -6 -6 -5 -5 -4 -4 -3 -3 -2 -1 -1 -0 -0 0 1 1 1 2 2 2 2 2 3 4 4 4
-4 -5 -6 -7 -7 -7 -8 -8 -8 -8 -8 -8 -8 -8 -8 -8 -7 -7 -6 -6 -6 -5 -5 -4 -4 -3 -2 -2 -2 -1 -1 -0 -0 0 0 0 0 0 1 2 2 3 3
-5 -6 -7 -8 -8 -8 -8 -9 -9 -9 -9 -9 -9 -9 -9 -8 -8 -7 -7 -7 -6 -6 -6 -5 -5 -4 -4 -3 -3 -2 -2 -2 -1 -1 -1 -1 -1 -0 -0 0 1 1 2
-6 -7 -8 -9 -9 -10 -10 -10 -10 -10 -10 -10 -9 -9 -9 -9 -9 -8 -8 -8 -7 -7 -7 -6 -6 -5 -5 -5 -4 -4 -4 -3 -3 -3 -2 -2 -2 -2 -2 -1 -1 -0 0
-7 -8 -9 -9 -10 -10 -11 -11 -10 -10 -10 -10 -10 -10 -10 -9 -9 -9 -9 -9 -8 -8 -8 -8 -7 -7 -6 -6 -6 -5 -5 -5 -5 -5 -4 -4 -4 -4 -3 -3 -3 -2 -2
-8 -8 -9 -10 -10 -11 -11 -11 -10 -10 -10 -10 -10 -10 -10 -10 -10 -10 -10 -9 -9 -9 -9 -8 -8 -8 -8 -7 -7 -7 -6 -6 -6 -6 -6 -6 -6 -5 -5 -5 -4 -4 -4
-8 -9 -10 -10 -11 -11 -11 -11 -11 -11 -10 -11 -11 -11 -11 -11 -11 -10 -10 -10 -10 -9 -9 -9 -9 -9 -9 -8 -7 -7 -7 -7 -7 -7 -7 -7 -7 -7 -6 -6 -6 -6 -5
-9 -9 -10 -10 -11 -11 -11 -11 -11 -11 -12 -12 -12 -12 -12 -12 -12 -11 -11 -11 -11 -10 -10 -9 -9 -9 -9 -8 -8 -8 -8 -8 -8 -8 -8 -8 -8 -8 -8 -7 -7 -7 -6
-9 -9 -10 -11 -11 -11 -11 -12 -12 -12 -12 -12 -12 -12 -13 -13 -13 -12 -12 -11 -11 -11 -11 -10 -10 -9 -9 -9 -8 -8 -8 -8 -8 -8 -8 -8 -9 -9 -9 -8 -8 -8 -7
-9 -9 -10 -11 -11 -12 -12 -12 -13 -13 -13 -13 -13 -13 -13 -13 -13 -13 -13 -12 -12 -12 -11 -11 -11 -10 -10 -10 -9 -9 -9 -9 -9 -9 -9 -9 -9 -9 -9 -9 -9 -9 -8
-10 -10 -11 -11 -11 -12 -13 -13 -13 -13 -13 -13 -14 -14 -14 -14 -14 -14 -14 -13 -13 -12 -12 -12 -12 -12 -11 -11 -10 -10 -10 -10 -10 -10 -10 -10 -10 -10 -9 -10 -10 -9 -9
-10 -11 -11 -11 -12 -12 -13 -13 -14 -14 -14 -14 -14 -14 -15 -14 -14 -14 -14 -14 -14 -13 -13 -13 -12 -12 -12 -12 -11 -11 -11 -11 -10 -10 -10 -10 -10 -10 -10 -10 -10 -10 -10
-11 -11 -11 -12 -12 -13 -13 -14 -14 -14 -14 -14 -14 -15 -15 -15 -15 -15 -15 -15 -14 -14 -13 -14 -13 -13 -12 -12 -12 -11 -11 -11 -11 -11 -11 -11 -11 -11 -11 -11 -11 -11 -11
-11 -11 -11 -12 -12 -13 -13 -14 -14 -14 -14 -14 -15 -15 -15 -15 -15 -15 -15 -15 -15 -14 -14 -14 -14 -14 -13 -13 -12 -12 -12 -12 -11 -11 -12 -12 -12 -12 -12 -12 -12 -12 -12
Wind_Speed
9 9 10 10 10 11 11 11 11 11 9 8 8 9 10 12 12 11 19 21 20 19 11 9 8 6 5 6 6 4 4 4 2 1 3 4 4 5 5 5 6 7 9
12 12 12 12 13 13 14 14 13 13 11 8 6 5 6 6 9 8 15 19 20 19 13 12 9 7 6 6 6 5 4 3 3 3 2 3 4 2 2 3 5 6 5
12 13 13 13 13 14 15 16 15 14 12 10 6 7 5 6 8 11 13 17 21 20 15 15 11 9 7 6 7 6 6 5 3 3 4 3 5 3 2 1 2 4 5
11 11 12 13 13 13 13 13 13 13 12 10 7 8 8 7 7 9 10 16 19 18 17 15 12 9 7 7 7 7 5 6 4 2 2 3 3 3 1 2 2 1 3
12 12 12 12 12 12 12 12 13 12 11 10 9 8 8 7 8 10 13 14 15 16 16 15 11 8 6 7 7 6 6 5 5 4 3 2 1 1 2 2 1 2 2
11 11 11 11 11 12 12 13 13 11 11 10 9 9 10 11 13 14 14 14 13 14 17 17 12 7 4 4 5 6 7 6 5 5 4 4 3 3 3 3 2 1 1
10 10 11 12 13 14 14 14 14 13 12 11 10 9 10 11 12 13 14 15 14 14 16 17 13 8 5 3 2 3 4 5 6 5 4 4 4 4 4 3 2 1 1
9 10 11 13 14 16 17 17 16 14 14 13 12 10 11 11 11 14 14 14 13 14 17 17 15 11 6 4 3 1 0 2 3 4 4 3 4 4 4 4 4 3 1
9 10 11 12 13 15 16 16 17 16 16 15 14 12 13 14 15 15 15 14 14 15 17 17 15 13 8 5 3 2 2 2 2 1 2 2 2 3 3 4 4 5 4
9 9 10 11 13 14 15 16 17 18 18 17 15 15 15 15 16 15 17 17 17 17 17 16 15 12 10 6 3 2 2 3 3 2 2 1 0 1 2 3 3 4 5
10 11 11 12 14 15 16 18 19 19 19 18 17 16 16 16 16 15 16 16 16 17 17 16 14 12 10 8 5 3 1 1 2 2 3 3 2 1 1 1 2 4 4
9 11 12 14 15 17 18 19 19 19 19 18 18 17 17 16 16 16 16 16 16 17 17 16 15 13 11 8 5 4 2 2 2 1 2 3 3 3 2 1 1 2 3
12 12 12 14 16 17 18 18 18 18 18 18 17 16 16 16 16 16 16 16 16 16 16 16 15 14 12 9 7 4 3 2 2 3 4 3 3 2 2 2 2 1 1
14 14 14 14 15 16 17 17 17 17 18 17 16 16 15 15 16 16 16 15 15 14 15 15 15 15 12 11 9 8 7 6 6 6 6 5 3 3 3 3 3 2 2
16 16 15 15 15 16 16 16 16 16 16 16 15 14 14 14 14 15 15 14 14 13 13 13 14 15 13 11 11 10 9 9 9 9 9 9 10 7 5 5 4 4 3
15 15 15 16 16 16 16 16 16 16 15 15 15 14 14 13 13 14 14 14 13 12 11 11 12 13 12 18 18 13 10 10 9 9 9 9 11 13 14 13 11 9 5
13 13 14 14 13 13 14 14 14 14 14 14 15 15 14 14 13 14 14 13 12 11 10 10 9 10 13 19 17 14 8 6 6 6 6 6 7 9 8 10 12 12 13
11 11 11 12 10 10 12 12 12 12 13 13 14 15 14 14 13 13 13 12 10 10 9 8 8 7 11 16 15 11 6 4 3 4 5 6 7 7 7 6 7 9 9
8 8 8 9 10 11 12 11 11 11 12 14 15 15 15 14 13 13 13 10 9 9 10 10 9 8 9 15 13 9 5 5 4 4 5 6 6 10 10 7 7 8 7
7 8 8 8 10 11 11 10 10 12 13 14 14 14 14 14 12 13 12 10 9 9 10 11 11 11 10 15 14 9 5 5 4 4 5 7 7 9 9 6 5 6 5
8 8 8 8 9 11 10 9 9 12 14 14 14 14 13 13 11 11 10 11 10 9 9 9 9 10 13 16 19 14 4 3 3 3 3 4 8 8 7 6 4 6 6
9 9 8 9 9 9 9 9 10 12 13 13 14 13 12 12 13 11 10 10 10 9 8 7 7 7 9 14 16 20 15 8 3 1 1 2 6 7 7 5 7 10 9
8 7 8 9 9 9 8 9 11 12 13 13 13 12 11 11 12 11 9 9 9 9 9 6 6 6 7 9 16 18 17 14 5 2 3 1 5 7 5 8 11 9 6
7 7 8 9 8 9 9 8 10 12 12 12 12 11 8 10 10 10 10 9 9 10 10 9 9 7 7 7 7 6 7 9 6 4 4 6 5 5 6 8 7 6 6
6 7 8 8 8 9 9 11 11 11 10 11 11 11 10 8 8 9 9 11 8 12 11 8 8 9 7 10 14 10 6 4 3 0 2 2 3 4 4 5 5 5 5
6 7 8 9 9 9 10 10 11 10 10 11 11 10 8 8 8 7 8 13 15 18 18 17 14 11 14 16 17 17 15 11 8 5 4 4 4 3 3 3 3 3 4
Wind_Direction
9 7 7 3 360 358 356 354 355 351 353 355 358 357 353 347 342 337 334 331 327 319 307 290 269 247 231 228 221 208 204 210 193 216 291 288 263 247 239 221 206 205 204
11 6 4 2 359 356 353 352 350 345 344 341 337 334 331 328 329 326 329 329 326 319 311 295 275 249 230 222 212 199 184 201 184 175 216 294 312 298 269 230 211 207 200
13 5 3 359 358 357 353 351 343 339 336 332 330 332 331 331 342 341 335 330 326 317 308 296 280 252 223 214 209 196 179 189 206 185 177 199 235 286 325 322 214 197 189
7 2 359 358 360 356 350 345 340 337 335 334 338 344 350 341 329 328 323 324 324 320 314 301 285 256 227 211 209 200 187 169 187 195 193 199 187 192 249 348 2 43 167
2 357 358 357 357 352 348 342 338 338 337 339 340 344 344 334 328 331 327 327 325 324 322 312 298 271 242 220 206 196 189 176 171 174 171 174 165 151 160 184 337 23 34
352 352 355 356 352 348 346 343 341 339 340 342 341 343 344 339 339 339 335 332 328 328 329 327 317 301 279 248 223 202 189 182 168 165 163 165 166 182 159 165 184 174 353
346 353 357 355 351 348 348 346 345 344 345 344 343 343 347 342 340 339 335 332 329 330 331 332 325 322 322 309 279 213 191 179 168 168 173 172 176 161 150 144 150 142 1
351 1 359 355 352 350 349 348 347 346 347 350 346 348 354 350 344 339 335 330 329 327 327 329 327 325 330 349 357 331 190 160 167 172 166 167 179 166 157 154 143 122 34
352 358 354 353 350 349 348 348 349 350 352 353 349 352 355 351 345 340 337 334 330 326 327 325 325 322 324 336 9 13 21 80 97 124 154 169 190 181 169 156 150 148 168
349 353 351 351 352 350 349 351 355 355 354 355 354 353 351 348 343 341 340 337 332 329 325 325 324 321 317 315 315 323 4 33 50 62 65 50 301 215 182 171 166 159 162
347 352 352 355 354 353 355 356 357 356 355 353 351 351 349 346 342 341 339 337 334 331 329 327 323 320 316 312 305 287 300 28 27 43 57 39 23 3 320 162 164 173 163
346 351 354 356 356 357 356 355 354 354 352 350 349 350 348 344 342 341 339 339 339 337 336 335 333 329 323 318 308 294 273 197 173 109 79 46 41 32 8 39 140 171 181
350 354 359 358 356 356 354 353 352 351 349 348 348 348 347 343 341 340 340 342 345 347 350 349 347 345 342 341 345 350 8 47 90 101 101 86 89 81 59 60 67 95 168
353 356 357 355 354 355 352 349 348 348 347 346 345 345 343 341 340 341 343 345 348 352 355 356 354 351 354 3 10 23 31 42 51 58 66 70 90 112 105 81 56 54 82
353 354 353 352 353 353 350 347 345 344 343 341 341 338 337 339 341 342 344 347 349 352 355 357 359 357 358 14 25 26 33 40 44 44 42 42 46 63 75 82 61 52 52
350 350 351 351 352 351 346 344 342 341 340 340 338 336 337 339 342 344 346 346 346 346 350 354 358 358 358 10 29 36 33 38 41 40 35 37 38 35 37 46 51 52 53
347 350 351 349 348 344 341 338 336 337 340 340 339 339 340 341 341 345 346 343 340 339 339 342 350 353 347 358 12 28 32 36 45 49 44 41 39 45 33 33 42 44 50
349 352 350 344 339 334 334 332 333 337 339 341 342 342 342 341 341 345 344 340 337 337 333 330 332 335 342 349 355 12 19 24 53 66 65 54 36 52 50 50 60 57 50
357 354 348 335 329 330 331 332 335 339 343 344 343 342 343 341 343 346 343 339 339 343 343 343 340 335 337 349 3 28 19 33 48 71 78 67 38 45 53 58 66 60 44
2 354 343 332 332 330 332 333 336 342 344 342 339 339 341 340 341 343 340 339 338 345 351 357 2 3 352 355 8 35 36 31 35 48 50 59 48 39 58 57 63 69 52
358 349 337 330 327 327 332 334 336 340 339 338 337 338 340 338 341 338 337 340 342 343 346 351 358 2 1 358 358 15 33 39 50 62 40 24 35 33 50 60 41 71 79
350 343 335 330 325 326 333 336 337 335 336 337 337 336 338 344 347 338 337 339 341 340 332 336 346 349 350 350 349 359 10 30 41 42 360 358 37 43 53 54 60 70 72
338 331 326 323 322 325 332 333 332 334 338 337 335 332 341 343 343 340 338 339 342 341 337 336 339 340 341 340 347 352 355 3 15 328 305 11 55 57 40 58 73 69 64
330 325 327 325 324 326 333 327 327 333 336 335 333 332 339 341 339 343 346 343 343 343 354 357 347 334 330 326 327 332 338 345 353 358 7 28 49 70 72 71 65 58 71
324 326 321 319 323 326 327 329 331 330 331 332 332 332 337 329 331 339 340 342 336 345 354 350 345 342 334 338 351 355 338 324 297 24 60 47 50 76 81 77 72 66 66
319 321 322 331 327 325 323 322 325 326 326 334 333 330 330 330 330 323 329 337 341 344 349 347 346 343 346 354 3 6 8 11 34 64 60 60 63 71 75 78 77 73 80
Height
1553 1550 1546 1542 1538 1533 1529 1524 1520 1515 1511 1506 1501 1496 1493 1490 1487 1484 1481 1479 1477 1475 1473 1471 1470 1469 1468 1466 1466 1465 1464 1464 1463 1463 1462 1462 1462 1463 1464 1465 1467 1468 1471
1554 1550 1547 1542 1538 1534 1529 1524 1519 1515 1510 1505 1501 1497 1492 1488 1484 1479 1476 1472 1469 1467 1465 1463 1462 1461 1461 1460 1459 1459 1458 1458 1458 1458 1458 1457 1457 1456 1457 1458 1460 1462 1464
1556 1552 1548 1544 1539 1534 1529 1524 1519 1514 1509 1503 1498 1493 1487 1483 1478 1472 1468 1465 1462 1459 1457 1456 1454 1453 1453 1452 1452 1452 1452 1452 1453 1453 1454 1454 1452 1452 1452 1453 1454 1456 1458
1557 1553 1548 1544 1539 1534 1529 1523 1517 1512 1506 1501 1495 1489 1483 1478 1474 1469 1464 1460 1456 1452 1450 1448 1447 1446 1446 1446 1446 1445 1446 1446 1447 1448 1449 1450 1449 1449 1448 1449 1449 1451 1453
1558 1553 1548 1543 1538 1532 1526 1520 1514 1509 1503 1498 1492 1487 1482 1476 1471 1465 1460 1454 1450 1446 1443 1441 1439 1439 1439 1439 1439 1439 1440 1440 1441 1443 1444 1445 1445 1446 1446 1446 1447 1448 1449
1558 1553 1548 1543 1537 1530 1524 1517 1511 1505 1500 1495 1490 1485 1479 1473 1467 1461 1455 1449 1444 1440 1437 1434 1432 1432 1432 1432 1433 1433 1434 1434 1436 1437 1438 1440 1441 1442 1443 1443 1444 1446 1448
1557 1552 1546 1540 1534 1527 1520 1514 1507 1501 1496 1491 1486 1481 1476 1470 1464 1458 1451 1446 1440 1436 1433 1430 1428 1426 1426 1426 1426 1427 1428 1429 1430 1432 1433 1435 1437 1438 1440 1441 1442 1443 1446
1556 1551 1545 1539 1532 1525 1518 1511 1504 1498 1493 1488 1483 1478 1472 1467 1461 1455 1449 1444 1439 1434 1430 1427 1424 1423 1421 1421 1421 1421 1422 1423 1424 1426 1428 1430 1433 1435 1436 1438 1439 1441 1443
1555 1549 1544 1537 1530 1523 1516 1509 1502 1496 1491 1485 1480 1475 1469 1464 1458 1452 1447 1441 1436 1432 1428 1424 1421 1419 1417 1416 1416 1416 1416 1417 1419 1421 1424 1426 1429 1431 1433 1434 1436 1439 1440
1553 1547 1541 1534 1528 1521 1514 1507 1501 1495 1490 1484 1479 1473 1467 1462 1456 1450 1444 1439 1434 1429 1425 1421 1418 1415 1413 1412 1411 1411 1412 1412 1414 1417 1419 1422 1425 1427 1429 1430 1432 1435 1437
1551 1545 1539 1532 1525 1519 1512 1505 1499 1493 1488 1482 1477 1471 1465 1459 1454 1449 1443 1438 1432 1427 1423 1419 1415 1412 1410 1408 1407 1406 1407 1408 1410 1412 1414 1417 1419 1422 1424 1426 1428 1430 1432
1551 1544 1537 1530 1523 1516 1510 1503 1498 1492 1487 1481 1475 1470 1464 1458 1452 1447 1442 1437 1431 1426 1421 1417 1413 1409 1407 1404 1403 1402 1402 1402 1404 1407 1409 1411 1414 1417 1419 1421 1423 1425 1427
1548 1542 1535 1528 1522 1515 1509 1503 1497 1491 1486 1480 1474 1468 1462 1457 1451 1446 1441 1436 1431 1426 1421 1416 1412 1408 1405 1402 1400 1398 1398 1399 1400 1401 1403 1406 1408 1411 1414 1416 1418 1420 1422
1546 1540 1534 1528 1521 1515 1508 1502 1496 1491 1485 1479 1473 1468 1462 1456 1450 1445 1440 1436 1431 1426 1421 1416 1412 1408 1404 1401 1398 1396 1396 1396 1396 1398 1399 1401 1404 1406 1409 1410 1412 1414 1416
1544 1539 1533 1527 1521 1514 1508 1502 1496 1490 1484 1479 1473 1467 1462 1456 1450 1445 1440 1435 1431 1426 1422 1417 1413 1409 1405 1402 1398 1396 1395 1395 1395 1396 1397 1399 1400 1402 1404 1405 1406 1408 1410
1544 1538 1533 1527 1520 1514 1507 1501 1495 1490 1484 1478 1473 1467 1461 1455 1450 1444 1440 1435 1431 1426 1422 1418 1414 1410 1407 1404 1401 1397 1396 1395 1395 1395 1396 1397 1398 1399 1400 1401 1402 1404 1405
1543 1537 1532 1526 1520 1514 1508 1502 1496 1490 1484 1478 1473 1467 1461 1456 1450 1445 1440 1435 1430 1426 1422 1418 1414 1411 1407 1405 1402 1400 1398 1397 1396 1396 1396 1397 1397 1398 1398 1399 1400 1401 1401
1541 1536 1531 1525 1519 1514 1508 1502 1496 1490 1484 1478 1472 1467 1461 1456 1451 1445 1440 1435 1431 1426 1422 1418 1415 1411 1408 1405 1403 1401 1399 1398 1397 1397 1397 1398 1398 1398 1397 1398 1398 1399 1400
1540 1535 1529 1524 1518 1513 1507 1501 1495 1489 1483 1477 1472 1466 1461 1456 1450 1445 1440 1435 1431 1426 1422 1419 1415 1412 1409 1406 1404 1401 1399 1398 1398 1398 1398 1398 1398 1398 1397 1397 1398 1398 1399
1538 1532 1527 1522 1517 1511 1506 1500 1494 1488 1482 1476 1471 1466 1461 1455 1450 1445 1440 1435 1431 1427 1423 1419 1416 1413 1410 1408 1405 1402 1400 1399 1399 1399 1399 1399 1399 1398 1396 1396 1397 1397 1398
1535 1530 1525 1520 1515 1510 1504 1498 1493 1487 1482 1476 1470 1465 1459 1454 1449 1444 1439 1435 1430 1426 1423 1419 1416 1413 1411 1408 1406 1404 1402 1400 1400 1400 1400 1400 1399 1398 1397 1396 1396 1397 1397
1532 1527 1523 1518 1513 1508 1502 1497 1491 1486 1480 1475 1469 1464 1459 1453 1448 1443 1438 1434 1430 1426 1422 1418 1415 1413 1411 1408 1406 1404 1402 1401 1400 1400 1400 1399 1399 1398 1397 1397 1397 1396 1397
1530 1525 1521 1516 1512 1506 1501 1496 1491 1485 1479 1473 1468 1463 1458 1453 1447 1442 1437 1433 1429 1426 1422 1418 1415 1412 1410 1407 1405 1403 1402 1400 1400 1399 1399 1399 1398 1397 1397 1397 1397 1397 1397
1528 1524 1519 1514 1509 1504 1500 1495 1490 1484 1478 1472 1467 1462 1457 1452 1447 1442 1438 1434 1430 1426 1422 1419 1416 1412 1410 1407 1405 1403 1401 1399 1398 1398 1397 1397 1397 1397 1397 1397 1397 1397 1397
1526 1522 1517 1512 1507 1503 1498 1493 1488 1483 1477 1471 1466 1461 1457 1451 1446 1442 1438 1434 1430 1427 1423 1419 1416 1413 1410 1407 1405 1402 1400 1398 1397 1396 1395 1396 1396 1396 1397 1397 1397 1397 1397
1525 1520 1515 1511 1506 1501 1496 1491 1487 1481 1476 1470 1465 1460 1455 1450 1445 1440 1436 1432 1430 1426 1422 1419 1416 1412 1410 1406 1403 1400 1398 1396 1394 1394 1394 1394 1395 1396 1396 1396 1396 1396 1396